Overview Statistics Trail Chart Weather Telemetry Raw packets
 

This is the latest recevied weather packets stored in our database for station/object N6GPM. If no packets are shown the sender has not sent any weather packets the latest 10 day(s).

<< 22 23 24 25 26 27 28 >>
Time Temp. Humidity Pressure Rain* Wind** Luminosity Snow
1788525910 15° C 88% 1016.9 hPa 0 mm - 0 W/m² -
1788525606 15° C 89% 1016.8 hPa 0 mm - 0 W/m² -
1788525305 15° C 89% 1016.6 hPa 0 mm - 0 W/m² -
1788525001 15° C 88% 1016.8 hPa 0 mm - 0 W/m² -
1788524695 15° C 89% 1016.8 hPa 0 mm - 0 W/m² -
1788524390 15° C 90% 1016.8 hPa 0 mm - 0 W/m² -
1788524086 15.56° C 90% 1016.8 hPa 0 mm - 0 W/m² -
1788523782 15.56° C 90% 1016.6 hPa 0 mm - 0 W/m² -
1788523478 15.56° C 90% 1016.9 hPa 0 mm - 0 W/m² -
1788523172 15.56° C 90% 1016.6 hPa 0 mm - 0 W/m² -
1788522868 15.56° C 90% 1016.7 hPa 0 mm - 0 W/m² -
1788522562 15.56° C 90% 1016.5 hPa 0 mm - 0 W/m² -
1788522262 15.56° C 90% 1016.6 hPa 0 mm - 0 W/m² -
1788521958 15.56° C 90% 1016.8 hPa 0 mm - 0 W/m² -
1788521652 15.56° C 90% 1016.7 hPa 0 mm - 0 W/m² -
1788521351 15.56° C 89% 1016.7 hPa 0 mm - 0 W/m² -
1788521047 15.56° C 89% 1016.6 hPa 0 mm - 0 W/m² -
1788520770 15.56° C 89% 1016.6 hPa 0 mm - 0 W/m² -
1788520438 15.56° C 89% 1016.6 hPa 0 mm - 0 W/m² -
1788520134 15.56° C 88% 1016.5 hPa 0 mm - 0 W/m² -
1788519833 15.56° C 87% 1016.6 hPa 0 mm - 0 W/m² -
1788519528 16.11° C 85% 1016.5 hPa 0 mm - 0 W/m² -
1788519222 16.11° C 82% 1016.5 hPa 0 mm - 0 W/m² -
1788518917 16.11° C 83% 1016.4 hPa 0 mm - 0 W/m² -
1788518613 15.56° C 86% 1016.6 hPa 0 mm - 0 W/m² -

* Rain latest hour (hover to see other rain measurements)
** Current wind speed in m/s (hover to see current wind gust speed)